Flag for Mozambique Weather past 2 weeks in Maputo, Mozambique

Now
77 °F

Passing clouds.


Feels Like: 79 °F
Forecast: 71 / 88 °F
Wind: 6 mph from East

Location: Maputo / Mavalane

Current Time: Mar 6, 2015 at 11:11:15 PM

Latest Report: Mar 6, 2015 at 10:00 PM


Visibility: N/A

Pressure: 30.07 "Hg

Humidity: 74%

Dew point: 68 °F

Location of MaputoLocation

Historic Weather in Maputo — Graph

°F

Maputo temperature yesterday

Maximum temperature yesterday: 90 °F (at 1:00 PM)
Minimum temperature yesterday: 64 °F (at 5:00 AM)
Average temperature yesterday: 77 °F

Past Weeks' High & Low Weather Summary

 TemperatureHumidityPressure
High95 °F (Feb 22, 6:00 PM)100% (Mar 1, 2:00 PM)30.27 "Hg (Mar 1, 2:00 PM)
Low64 °F (Mar 4, 3:00 AM)38% (Mar 5, 12:00 PM)29.74 "Hg (Feb 26, 4:00 PM)
Average78 °F67%29.99 "Hg
* Reported Feb 19 11:00 PM — Mar 6 10:00 PM, Maputo, Weather by CustomWeather, © 2015

Note: Actual official high and low records may vary slightly from our data, if they occured in-between our weather recording intervals... More about our weather records

Advertising

Maputo weather history for previous 24 hours

 ConditionsComfort  
Time TempWeatherWind HumidityBarometerVisibility
10:00 PM
Fri, Mar 6
77 °FPassing clouds.6 mph74%30.07 "HgN/A
9:00 PM77 °FPassing clouds.9 mph74%30.07 "HgN/A
8:00 PM77 °FPassing clouds.10 mph79%30.04 "HgN/A
7:00 PM79 °FPassing clouds.12 mph70%30.04 "HgN/A
6:00 PM79 °FPassing clouds.12 mph70%30.04 "HgN/A
5:00 PM81 °FScattered clouds.13 mph66%30.04 "HgN/A
4:00 PM84 °FScattered clouds.14 mph55%30.04 "HgN/A
3:00 PM86 °FScattered clouds.14 mph52%30.04 "HgN/A
2:00 PM86 °FScattered clouds.12 mph52%30.04 "HgN/A
1:00 PM86 °FScattered clouds.10 mph52%30.07 "HgN/A
12:00 PM86 °FScattered clouds.9 mph52%30.09 "HgN/A
11:00 AM86 °FScattered clouds.7 mph49%30.09 "HgN/A
10:00 AM84 °FScattered clouds.7 mph55%30.12 "HgN/A
9:00 AM81 °FScattered clouds.10 mph66%30.12 "HgN/A
8:00 AM79 °FScattered clouds.10 mph70%30.09 "HgN/A
7:00 AM77 °FScattered clouds.10 mph74%30.09 "HgN/A
6:00 AM75 °FBroken clouds.10 mph78%30.07 "HgN/A
5:00 AM75 °FPartly sunny.5 mph78%30.07 "HgN/A
4:00 AM73 °FPassing clouds.7 mph83%30.04 "HgN/A
2:00 AM75 °FPassing clouds.7 mph78%30.07 "HgN/A
Weather by CustomWeather, © 2015

See weather overviewHow to use our weather pages